#timestamp,LO_Frequency,Hit,StdDev 
1543014015.3,286047006.5,N
1543014035.2,286047006.4,N
1543014055.0,286047006.5,N
1543014055.9,286047006.5,N
1543014075.8,286047006.2,N
1543014095.6,286047006.1,N
1543014115.4,286047006.8,N
1543014135.3,286047003.8,N
1543014155.1,286047004.2,N
1543014175.8,286047001.5,N
1543014195.7,286046998.4,N
1543014215.5,286046999.4,N
1543014235.3,286046999.2,N
1543014255.2,286046998.7,N
1543014275.0,286046996.9,N
1543014275.9,286046996.9,N
1543014295.8,286046996.7,N
1543014315.6,286046997.4,N
1543014335.4,286046997.4,N
1543014355.3,286046997.9,N
1543014375.1,286046999.3,N
1543014395.8,286046999.4,N
1543014415.7,286046998.9,N
1543014435.5,286047000.8,N
1543014455.4,286046999.9,N
1543014475.2,286046998.6,N
1543014495.0,286046998.8,N
1543014495.9,286046998.8,N
1543014515.8,286046999.5,N
1543014535.6,286046996.5,N
1543014555.4,286046996.8,N
1543014575.3,286046996.7,N
1543014595.1,286046995.0,N
1543014615.9,286046999.3,N
1543014635.7,286046995.6,N
1543014655.5,286046992.2,N
1543014675.4,286046993.7,N
1543014695.2,286046996.3,N
1543014715.0,286046996.4,N
1543014715.9,286046996.4,N
1543014735.8,286046993.8,Y
1543014755.6,286046995.7,P
1543014775.5,286046995.7,P
1543014795.3,286046995.3,P
1543014815.1,286046995.9,Y
1543014835.9,286047000.8,P
1543014855.7,286047002.0,N
1543014875.5,286047002.7,N
1543014895.4,286047002.5,N
1543014915.2,286047003.5,N
1543014935.1,286047011.9,Y
1543014936.0,286047005.2,P
1543014955.8,286047005.2,N
1543014975.6,286047009.2,P
1543014995.5,286047008.4,N
1543015015.3,286047010.6,Y
1543015035.1,286047003.3,P
1543015055.9,286047001.7,N
1543015075.7,286047002.8,N
1543015095.6,286046998.6,N
1543015115.4,286046998.8,N
1543015135.2,286046997.0,N
1543015155.1,286046999.5,N
1543015156.0,286046999.5,N
1543015175.8,286046997.6,N
1543015195.6,286046991.8,Y
1543015215.5,286046989.0,P
1543015235.3,286046989.4,N
1543015255.2,286046988.1,N
1543015275.9,286046983.8,Y
1543015295.7,286046994.7,P
1543015315.6,286046992.5,P
1543015335.4,286046992.6,P
1543015355.2,286046996.4,Y
1543015375.1,286047003.5,P
1543015376.0,286047003.5,N
1543015395.8,286047005.3,N
1543015415.7,286047006.9,N
1543015435.5,286047005.6,N
1543015455.3,286047005.8,N
1543015475.2,286047003.9,N
1543015495.0,286047000.0,N
1543015495.9,286047000.0,N
1543015515.8,286046998.2,N
1543015535.6,286047001.2,N
1543015555.4,286046999.0,N
1543015575.3,286046996.7,N
1543015595.1,286046995.1,N
1543015615.8,286046999.2,N
1543015635.7,286046997.3,N
1543015655.5,286046999.5,N
1543015675.4,286046996.6,N
1543015695.2,286046997.0,N
1543015715.0,286046996.6,N
1543015715.9,286046996.6,N
1543015735.8,286047001.2,N
1543015755.6,286047000.8,N
1543015775.5,286046999.0,N
1543015795.3,286046998.2,N
1543015815.1,286046999.5,N
1543015835.9,286047001.1,N
1543015855.7,286047000.6,N
1543015875.5,286047001.2,N
1543015895.4,286047000.7,N
1543015915.2,286047002.0,N
1543015935.1,286047000.2,N
1543015936.0,286047000.2,N
1543015955.8,286047001.1,N
1543015975.6,286047002.6,N
1543015995.5,286047003.9,N
1543016015.3,286047007.6,Y
1543016035.2,286047008.5,P
1543016055.9,286047008.1,N
1543016075.7,286047012.1,N
1543016095.6,286047010.9,N
1543016115.4,286047013.2,Y
1543016135.2,286047010.7,P
1543016155.1,286047010.3,P
1543016156.0,286047010.3,P
1543016175.8,286047010.3,Y
1543016195.7,286047004.3,P
1543016215.5,286046999.9,N
1543016235.3,286046998.7,N
1543016255.2,286046999.1,N
1543016275.0,286046999.4,N
1543016275.9,286046999.4,N
1543016295.8,286046997.9,N
1543016315.6,286046993.3,N
1543016335.4,286046995.2,N
1543016355.3,286046996.8,N
1543016375.1,286046995.9,N
1543016376.0,286046995.9,N
1543016395.8,286046995.2,N
1543016415.7,286046993.3,N
1543016435.5,286046994.4,N
1543016455.3,286046992.4,N
1543016475.2,286046994.7,N
1543016495.0,286046994.8,N
1543016495.9,286046994.8,N
1543016515.8,286046994.5,N
1543016535.6,286046994.8,N
1543016555.4,286046994.1,N
1543016575.3,286046996.4,N
1543016595.1,286046995.2,N
1543016615.9,286046996.9,N
1543016635.7,286046997.6,N
1543016655.5,286046997.6,N
1543016675.4,286046996.8,N
1543016695.2,286047000.5,N
1543016715.0,286046998.8,N
1543016715.9,286046998.8,N
1543016735.8,286046999.9,N
1543016755.6,286047001.8,N
1543016775.5,286047002.5,N
1543016795.3,286047003.7,N
1543016815.1,286047003.4,N
1543016865.9,286047009.1,E
1543016875.8,286047003.0,N
1543016895.7,286046997.1,P
1543016915.5,286046995.5,N
1543016935.3,286046996.6,N
1543016955.2,286046999.6,N
1543016975.9,286046999.2,N
1543016995.7,286046996.6,N
1543017015.6,286046997.6,N
1543017035.4,286046998.8,N
1543017055.3,286047002.2,N
1543017075.1,286047003.2,N
1543017076.0,286047003.2,N
1543017095.8,286047004.5,N
1543017115.7,286047008.3,N
1543017135.5,286047008.7,N
1543017155.3,286047005.1,N
1543017175.2,286047005.9,N
1543017195.0,286047006.0,N
1543017195.9,286047006.0,N
1543017215.8,286047005.4,N
1543017235.6,286047007.2,N
1543017255.4,286047008.0,N
1543017275.3,286047007.7,N
1543017295.1,286047010.7,N
1543017315.9,286047010.0,N
1543017335.7,286047008.9,N
1543017355.5,286047009.2,N
1543017375.4,286047007.4,N
1543017395.2,286047005.0,N
1543017415.0,286047005.5,N
1543017415.9,286047005.5,N
1543017435.8,286047005.5,N
1543017455.6,286047006.6,N
1543017475.5,286047008.5,N
1543017495.3,286047010.4,N
1543017515.1,286047007.8,N
1543017535.9,286047012.0,Y
1543017555.7,286047002.9,P
1543017575.5,286047004.7,P
1543017595.4,286047007.3,P
